Airfield :
LOGIN :

Register | Disclaimer

   EN    FR    IT 

 










Legend :    VFR   Marginal VFR   IFR   Intensive IFR   Very Intensive IFR
Visi :
Ceiling :
>= 8 km
>= 3000ft
5 to 8 km
1000 to 3000 ft
1500m to 5 km
500 to 1000 ft
800 to 1500m
200 to 500 ft
< 800m
< 200 ft
Symbols :   Thunderstorms  Fog  Heavy snow  Heavy precipitations  Wind > 20 kt
SIGMETs :     Misc.  Thunderstorms  Icing  Turbulence  Mountain Waves  Volcanic Ashes







- Airport Elevation : 604 ft
- IATA code : LCJ


EPLL - Lodz

CURRENT METAR :
  • 240330Z 24006KT 9999 OVC034 M02/M08 Q1038

EXPIRED METARs :
  • 240300Z 25008KT 9999 OVC038 M02/M08 Q1038
  • 240230Z 24007KT 9999 OVC040 M02/M08 Q1039
  • 240200Z 24006KT 9999 OVC039 M02/M08 Q1039
  • 240130Z 23006KT 9999 OVC041 M02/M08 Q1039
  • 240100Z 22005KT 190V250 9999 BKN040 M02/M08 Q1039
  • 240030Z 23006KT 9999 SCT043 M03/M08 Q1039

TAF TAF EPLL
Valid from the 24 at 00:00 until the 25 at 00:00 UTC


232330Z 2400/2424 25005KT CAVOK
No reported NOTAMs for that airfield.



MET'MAP, your aeronautical weather chart ! - Copyright ORBIFLY December 2007 - Disclaimer

ORBIFLY MET'MAP TEAM :

Programming & Development : Alexandra Zaïnal
Concept & Development : Baudouin d'Aumeries
Co-Development & Prog : Marc-Olivier Méhu
Technical & hardware support : Manuel Goepfert

Contact : metmap@orbifly.com




SOURCES & CREDITS :

   NOAA